This demonstration page uses our WeatherBlox Daily Observations layout. Learn more.

Hourly Observations for May 27, 2015

Temp ( °F °C ) Dew Point ( °F °C ) Humidity (%) Winds ( mph kmh ) Pressure ( in mb ) Visibility ( mi km ) Precip ( " mm )
12:15 am 00:15 Clear 55 12.5 48 9 79 79 Calm 30 1016 10 16.0934 0 0
12:35 am 00:35 Clear 53 11.8 48 8.7 81 81 Calm 30.03 1017 10 16.0934 0 0
12:55 am 00:55 Clear 53 11.7 48 8.8 83 83 SW 3 6 30.03 1017 10 16.0934 0 0
1:15 am 01:15 Clear 54 12.1 49 9.2 83 83 Calm 30.03 1017 10 16.0934 0 0
1:35 am 01:35 Clear 55 12.7 48 9 78 78 SW 3 6 30 1016 10 16.0934 0 0
1:55 am 01:55 Clear 54 12 47 8.4 79 79 Calm 30.03 1017 10 16.0934 0 0
2:15 am 02:15 Clear 53 11.7 47 8.4 80 80 SSW 3 6 30.03 1017 10 16.0934 0 0
2:35 am 02:35 Clear 50 10.2 46 8 86 86 Calm 30.03 1017 10 16.0934 0 0
2:55 am 02:55 Clear 52 11.1 47 8.1 82 82 SSW 3 6 30.03 1017 10 16.0934 0 0
3:15 am 03:15 Clear 50 9.9 46 7.5 85 85 SW 5 7 30.06 1018 10 16.0934 0 0
3:35 am 03:35 Clear 54 12.2 47 8.5 78 78 SW 5 7 30.06 1018 10 16.0934 0 0
3:55 am 03:55 Clear 54 12.3 47 8.5 78 78 SSW 5 7 30.06 1018 10 16.0934 0 0
4:15 am 04:15 Clear 55 12.7 47 8.5 76 76 SSW 6 9 30.06 1018 10 16.0934 0 0
4:35 am 04:35 Clear 54 12.3 47 8.3 77 77 SW 5 7 30.06 1018 10 16.0934 0 0
4:55 am 04:55 Clear 53 11.6 46 8 79 79 Calm 30.06 1018 10 16.0934 0 0
5:15 am 05:15 Clear 51 10.4 46 7.8 84 84 Calm 30.06 1018 10 16.0934 0 0
5:35 am 05:35 Clear 47 8.2 43 6.2 87 87 Calm 30.09 1019 10 16.0934 0 0
5:55 am 05:55 Clear 48 8.7 44 6.7 87 87 Calm 30.09 1019 10 16.0934 0 0
6:15 am 06:15 Sunny 47 8.5 45 7.1 91 91 Calm 30.09 1019 10 16.0934 0 0
6:35 am 06:35 Sunny 47 8.6 44 6.9 89 89 Calm 30.09 1019 10 16.0934 0 0
6:55 am 06:55 Sunny 51 10.3 47 8.4 88 88 SSW 10 17 30.12 1020 10 16.0934 0 0
7:15 am 07:15 Sunny 55 12.9 49 9.2 78 78 SSW 7 11 30.09 1019 10 16.0934 0 0
7:35 am 07:35 Sunny 56 13.2 50 9.8 80 80 SW 5 7 30.09 1019 10 16.0934 0 0
7:55 am 07:55 Sunny 58 14.6 50 10.1 75 75 Calm 30.06 1018 10 16.0934 0 0
8:15 am 08:15 Sunny 61 16.1 51 10.8 71 71 SSW 3 6 30.06 1018 10 16.0934 0 0
8:35 am 08:35 Sunny 64 17.9 51 10.5 62 62 SSW 7 11 30.03 1017 10 16.0934 0 0
8:55 am 08:55 Sunny 65 18.5 49 9.7 57 57 SE 3 6 30.03 1017 10 16.0934 0 0
9:15 am 09:15 Sunny 67 19.3 50 9.9 55 55 SSE 5 7 30.03 1017 10 16.0934 0 0
9:35 am 09:35 Sunny 68 19.9 49 9.2 50 50 SSE 7 11 30.03 1017 10 16.0934 0 0
9:55 am 09:55 Sunny 69 20.8 47 8.1 44 44 SSE 8 13 30 1016 10 16.0934 0 0
10:15 am 10:15 Partly Cloudy 70 21.2 47 8.2 43 43 S 12 19 30 1016 10 16.0934 0 0
10:35 am 10:35 Sunny 71 21.5 46 7.8 41 41 SSE 9 15 30 1016 10 16.0934 0 0
10:55 am 10:55 Sunny 72 22.2 44 6.8 37 37 SSE 12 19 30 1016 10 16.0934 0 0
11:15 am 11:15 Sunny 73 22.5 44 6.4 35 35 SE 7 11 30 1016 10 16.0934 0 0
11:35 am 11:35 Sunny 72 22.2 42 5.7 34 34 SSE 10 17 30 1016 10 16.0934 0 0
11:55 am 11:55 Sunny 74 23.1 41 5 31 31 SSE 9 15 30 1016 10 16.0934 0 0
12:15 pm 12:15 Sunny 75 24 43 6.1 32 32 SE 12 19 29.97 1015 10 16.0934 0 0
12:35 pm 12:35 Sunny 76 24.2 46 7.6 35 35 S 9 15 29.97 1015 10 16.0934 0 0
12:55 pm 12:55 Partly Cloudy 76 24.2 46 7.7 35 35 S 12 19 29.97 1015 10 16.0934 0 0
1:15 pm 13:15 Mostly Cloudy 75 23.8 47 8.4 37 37 S 13 20 29.97 1015 10 16.0934 0 0
1:35 pm 13:35 Mostly Cloudy 74 23.5 48 9.1 40 40 SSE 10 17 29.97 1015 10 16.0934 0 0
1:55 pm 13:55 Mostly Cloudy 73 22.5 50 9.8 45 45 SSE 7 11 30 1016 10 16.0934 0 0
2:15 pm 14:15 Mostly Cloudy 73 23 51 10.7 46 46 SSE 15 24 30 1016 10 16.0934 0 0
2:35 pm 14:35 Mostly Cloudy 74 23.2 51 10.5 45 45 SSE 12 19 30 1016 10 16.0934 0 0
2:55 pm 14:55 Partly Cloudy 75 23.7 51 10.6 44 44 SSE 12 19 29.97 1015 10 16.0934 0 0
3:15 pm 15:15 Partly Cloudy 73 23 51 10.5 45 45 S 14 22 30 1016 10 16.0934 0 0
3:35 pm 15:35 Partly Cloudy with Light Rain 70 21.2 55 12.6 58 58 SSW 10 17 30 1016 10 16.0934 0 0
3:55 pm 15:55 Partly Cloudy with Light Rain 71 21.5 55 12.7 57 57 SSE 9 15 29.97 1015 10 16.0934 0 0
4:15 pm 16:15 Sunny 73 22.5 53 11.9 51 51 SSE 14 22 29.97 1015 10 16.0934 0 0
4:35 pm 16:35 Sunny 74 23.2 53 11.8 49 49 SSE 12 19 29.94 1014 10 16.0934 0 0
4:55 pm 16:55 Sunny 76 24.5 53 11.6 45 45 SE 16 26 29.91 1013 10 16.0934 0 0
5:15 pm 17:15 Sunny 77 24.8 52 11.3 43 43 SE 17 28 29.91 1013 10 16.0934 0 0
5:35 pm 17:35 Partly Cloudy 75 24.1 52 11.3 45 45 SSE 12 19 29.91 1013 10 16.0934 0 0
5:55 pm 17:55 Mostly Cloudy 75 24 53 11.8 46 46 SSE 15 24 29.91 1013 10 16.0934 0 0
6:15 pm 18:15 Partly Cloudy 74 23.5 53 11.5 47 47 S 16 26 29.91 1013 10 16.0934 0 0
6:35 pm 18:35 Mostly Cloudy 74 23.1 53 11.9 49 49 SSE 13 20 29.94 1014 10 16.0934 0 0
6:55 pm 18:55 Mostly Cloudy 73 22.7 55 12.5 53 53 SSE 15 24 29.94 1014 10 16.0934 0 0
7:15 pm 19:15 Partly Cloudy 72 22.2 54 12.2 53 53 S 13 20 29.94 1014 10 16.0934 0 0
7:35 pm 19:35 Partly Cloudy 71 21.5 55 12.7 57 57 SSE 12 19 29.94 1014 10 16.0934 0 0
7:55 pm 19:55 Sunny 70 21.1 55 13 60 60 SSE 9 15 29.94 1014 10 16.0934 0 0
8:15 pm 20:15 Sunny 69 20.6 56 13.1 62 62 SSE 9 15 29.94 1014 10 16.0934 0 0
8:35 pm 20:35 Sunny 68 20.1 56 13.3 65 65 SSE 6 9 30 1016 10 16.0934 0 0
8:55 pm 20:55 Partly Cloudy 67 19.6 56 13.5 68 68 SSE 6 9 30 1016 10 16.0934 0 0
9:15 pm 21:15 Mostly Cloudy 67 19.4 57 13.9 71 71 SSE 8 13 30 1016 10 16.0934 0 0
9:35 pm 21:35 Mostly Cloudy with Light Rain 67 19.5 58 14.6 73 73 S 8 13 30.03 1017 10 16.0934 0 0
9:55 pm 21:55 Partly Cloudy with Light Rain 66 19 60 15.3 79 79 S 8 13 30 1016 10 16.0934 0 0
10:15 pm 22:15 Partly Cloudy with Light Rain 66 19 59 15 78 78 S 12 19 30 1016 10 16.0934 0 0
10:35 pm 22:35 Clear with Light Rain 66 19 59 15 78 78 S 13 20 30 1016 10 16.0934 0 0
10:55 pm 22:55 Clear 65 18.6 59 15 80 80 S 14 22 29.97 1015 10 16.0934 0 0
11:15 pm 23:15 Clear 65 18.5 59 15 80 80 SSE 12 19 29.97 1015 10 16.0934 0 0
11:35 pm 23:35 Clear 64 18 59 15 83 83 SSE 14 22 29.94 1014 10 16.0934 0 0
11:55 pm 23:55 Clear 64 18 59 15 83 83 SSE 10 17 29.94 1014 10 16.0934 0 0

Powered by AerisWeather